Overview Statistics Trail Chart Weather Telemetry Raw packets
 

This is the latest recevied weather packets stored in our database for station/object K8RRT. If no packets are shown the sender has not sent any weather packets the latest 10 day(s).

<< 21 22 23 24 25 26 27 >>
Time Temp. Humidity Pressure Rain* Wind** Luminosity Snow
1788469590 35.56° C 57% 1010.7 hPa 0 mm - 287 W/m² -
1788469286 35.56° C 58% 1010.8 hPa 0 mm - 283 W/m² -
1788468985 35.56° C 56% 1010.8 hPa 0 mm - 404 W/m² -
1788468679 35.56° C 57% 1011 hPa 0 mm - 408 W/m² -
1788468375 36.11° C 57% 1011.3 hPa 0 mm - 451 W/m² -
1788468070 36.11° C 56% 1011.4 hPa 0 mm - 454 W/m² -
1788467766 35° C 58% 1011.4 hPa 0 mm - 488 W/m² -
1788467466 35° C 56% 1011.4 hPa 0 mm - 492 W/m² -
1788467156 35° C 56% 1011.5 hPa 0 mm - 524 W/m² -
1788466851 36.11° C 57% 1011.6 hPa 0 mm - 539 W/m² -
1788466546 35.56° C 57% 1011.5 hPa 0 mm - 535 W/m² -
1788466245 35.56° C 55% 1011.5 hPa 0 mm - 518 W/m² -
1788465940 35.56° C 53% 1011.6 hPa 0 mm - 524 W/m² -
1788465635 35.56° C 58% 1011.6 hPa 0 mm - 542 W/m² -
1788465331 35° C 58% 1011.5 hPa 0 mm - 540 W/m² -
1788465026 35° C 59% 1011.8 hPa 0 mm - 602 W/m² -
1788464722 35° C 57% 1011.7 hPa 0 mm - 610 W/m² -
1788464417 35.56° C 57% 1011.6 hPa 0 mm - 629 W/m² -
1788464113 35.56° C 55% 1011.9 hPa 0 mm - 649 W/m² -
1788463808 36.67° C 57% 1011.8 hPa 0 mm - 616 W/m² -
1788463505 36.67° C 57% 1011.8 hPa 0 mm - 561 W/m² -
1788463205 35.56° C 56% 1012.1 hPa 0 mm - 606 W/m² -
1788462901 35.56° C 56% 1011.8 hPa 0 mm - 661 W/m² -
1788462600 35° C 57% 1012.3 hPa 0 mm - 616 W/m² -
1788462295 35° C 58% 1012.4 hPa 0 mm - 596 W/m² -

* Rain latest hour (hover to see other rain measurements)
** Current wind speed in m/s (hover to see current wind gust speed)